Showing default

PISAT, 41784

Orbit data source: Space-Track

PISAT, 41784 is a payload satellite owned by PES Univ. (IN) in SSO that was launched on Mon, 26 Sep 2016 UTC via a PSLV launch vehicle from the Sirharikota (SRI). Payload-class satellites include a variety of spacecraft equipped with specific instruments for various scientific and technological missions. These include communications satellites like Starlink; space stations such as the ISS; scientific satellites like the Hubble; Earth observation satellites from companies like Planet Labs, Umbra, and HawkEye 360; GPS; miniature CubeSats for education and research; and military/defense satellites.

Loading next visibility...
Identifier
41784, 2016-059B
Orbit
SSO
Country
Flag of ININ / IND
Related business
Manufacturer
PES Univ.
Mission
Operational Amateur Imaging
Bus & Motor
PISAT, Unknown motor
Mass
5.25 kg wet, 5.25 kg dry
Launch date (UTC)
2016-09-26 (9 years ago)
Launch vehicle
PSLV
Launch site
Sirharikota (SRI)
Object type
Payload
Rocket body
Debris
Shape & HBR
Box, 0.1 m
Radar Cross Section
0.063 m², Medium (>0.1 m² and < 1m²)

Expand to show TLE details & history
Last TLE update: 11 hours ago

TLE from 11 hours ago
0 PISAT
1 41784U 16059B   25310.29772085  .00001586  00000-0  28092-3 0  9990
2 41784  97.8170 315.4765 0028856 194.7981 165.2384 14.68356243487029
Epoch: 2025-11-06T07:08Z
TLE epoch observation values (Epoch: 2025-11-06T07:08:43.081Z)
Latitude
0.00005°
Longitude
162.53894°
Altitude
688.993 km
Speed
7.501 km/s
True Right ascension
21h 01m 54s
True Declination
0° 00' 00"
Sunlit
Object was in daylight at epoch
Visualization orbit readout
Latitude
Unknown
Longitude
Unknown
Altitude
Unknown
Speed
Unknown
Apparent Right ascension
Unknown
Apparent Declination
Unknown
Sunlit
N/A
Visualization observer readout
Local Sidereal Time
14:06:23
Azimuth
Unknown
Elevation
Unknown
Doppler factor
Unknown
Orbital elements
Apogee altitude
683.692 km
Perigee altitude
643.054 km
Semi-major axis
7,041.51 km
Eccentricity
0.00289
Inclination
97.817°
RAAN
315.4765°
Arg. of periapsis
194.7981°
True anomaly
165.32236°
Mean anomaly
165.2384°
Eccentric anomaly
165.28041°
Mean motion
3.6732 °/min
Orbital period
98.01 mins
BSTAR
0.00028092
Loading maneuver chart data...
Computing Atmospheric mass density...
Loading historical data...
Loading historical data...
Loading historical data...
Loading historical data...
Loading historical data...
Loading historical data...
Loading historical data...

Documentation

Showing up to 5 results
|